Hourly Data Report for September 05, 2020

LOURDES DE BLANC SABLON A
QUEBEC
Current Station Operator: NAVCAN

51°26'31.000" N
57°11'10.000" W
37.20 m
7040815
71808
YBX

Download Data

Hourly Data (September 2020)
Hourly Data Report for September 5, 2020
TIME Temp Definition
°C
Dew Point Definition
°C
Rel Hum Definition
%
Wind Dir Definition
10's deg

Wind Spd Definition
km/h
Visibility Definition
km
Stn Press Definition
kPa
Hmdx Definition


Wind Chill Definition


Weather Definition


00:00 13.0 13.0 100 23 19 0.2 100.32     Drizzle,Fog
01:00 12.8 12.8 100 26 7 4.8 100.33     Fog
02:00 12.3 12.3 100 5 3 8.1 100.33     Fog
03:00 11.4 11.4 100 3 4 4.8 100.32     Fog
04:00 10.1 10.1 100 2 4 4.8 100.34     Fog
05:00 10.8 10.8 100 8 6 6.4 100.35     Fog
06:00 10.7 10.7 100 24 7 24.1 100.35     LegendNANA
07:00 13.0 12.5 97 21 13 24.1 100.32     LegendNANA
08:00 14.2 12.0 87 25 16 24.1 100.31     Mainly Clear
09:00 14.6 12.4 86 25 18 24.1 100.29     LegendNANA
10:00 14.5 12.2 86 23 18 24.1 100.26     LegendNANA
11:00 15.4 12.7 84 24 16 24.1 100.24     Mostly Cloudy
12:00 15.6 12.1 79 23 18 24.1 100.19     LegendNANA
13:00 16.1 12.3 78 23 21 24.1 100.15     LegendNANA
14:00 16.8 12.9 78 22 21 24.1 100.11     Mainly Clear
15:00 16.5 11.6 73 22 32 24.1 100.07     LegendNANA
16:00 15.3 11.8 80 23 34 24.1 100.12     LegendNANA
17:00 15.3 11.2 76 23 39 24.1 100.15     Clear
18:00 14.2 10.9 80 23 35 24.1 100.20     LegendNANA
19:00 13.8 11.0 83 23 34 24.1 100.27     LegendNANA
20:00 13.8 10.8 82 24 42 24.1 100.34     Clear
21:00 13.3 10.8 85 24 31 24.1 100.42     LegendNANA
22:00 13.1 10.2 83 25 27 24.1 100.51     LegendNANA
23:00 12.2 10.3 88 26 18 24.1 100.57     Clear

Notes on Data Quality.

Legend

  • E = Estimated
  • M = Missing
  • NA = Not Available*
  • [empty] = Indicates an unobserved value
Date modified: